Date String (YYYY-MM-DD hh:mm:ss) UTC,Instrument flags,Ambient pressure (hPa),Sample flow (lpm),Bypass flow (lpm),Sample temperature (°C),Ambient temperature (°C),ASC tube jacket temperature (°C),LED temperature (°C),Box temperature (°C),Sample RH (%),Span deviation,Mass concentration (μg/m³),Mass concentration (μg/m³),Mass concentration (μg/m³)
DateTimeUTC,F1_M11,P_M11,Q1_M11,Q2_M11,T1_M11,T2_M11,T3_M11,T4_M11,T5_M11,U1_M11,ZSPAN_M11,X0_M11,X2_M11,X1_M11
2023-02-18 06:00:00,,0825.3,4.99,0.00,21.4,19.7,00.0,30.5,23.1,07.1,0000.0,0002.87,0001.18,0000.91
2023-02-18 06:01:00,,0825.3,4.99,0.00,21.4,19.6,00.0,30.5,23.0,07.3,0000.0,0002.73,0001.12,0000.88
2023-02-18 06:02:00,,0825.3,5.01,0.00,21.4,19.6,00.0,30.5,23.0,07.4,0000.0,0002.67,0001.09,0000.87
2023-02-18 06:03:00,,0825.3,5.00,0.00,21.3,19.5,00.0,30.4,22.9,07.1,0000.0,0002.54,0001.02,0000.85
2023-02-18 06:04:00,,0825.3,5.02,0.00,21.3,19.5,00.0,30.4,22.9,06.9,0000.0,0001.58,0000.97,0000.84
2023-02-18 06:05:00,,0825.3,5.02,0.00,21.3,19.4,00.0,30.4,22.9,06.7,0000.0,0001.51,0000.93,0000.82
2023-02-18 06:06:00,,0825.3,5.01,0.00,21.2,19.3,00.0,30.4,22.8,06.9,0000.0,0001.58,0000.94,0000.79
2023-02-18 06:07:00,,0825.3,4.99,0.00,21.2,19.4,00.0,30.3,22.8,07.3,0000.0,0001.55,0000.93,0000.78
2023-02-18 06:08:00,,0825.3,4.96,0.00,21.3,20.7,00.0,30.3,23.1,07.1,0000.0,0001.43,0000.91,0000.78
2023-02-18 06:09:00,,0825.3,4.97,0.00,21.4,22.0,00.0,30.2,23.5,07.1,0000.0,0001.43,0000.90,0000.78
2023-02-18 06:10:00,,0825.2,5.01,0.00,21.6,22.5,00.0,30.3,23.7,07.2,0000.0,0001.21,0000.90,0000.78
2023-02-18 06:11:00,,0825.2,5.01,0.00,21.6,21.9,00.0,30.4,23.6,07.1,0000.0,0001.22,0000.91,0000.79
2023-02-18 06:12:00,,0825.2,4.96,0.00,21.6,21.3,00.0,30.4,23.4,07.1,0000.0,0001.28,0000.95,0000.80
2023-02-18 06:13:00,,0825.2,4.98,0.00,21.6,20.9,00.0,30.4,23.3,06.8,0000.0,0001.35,0000.98,0000.81
2023-02-18 06:14:00,,0825.2,4.99,0.00,21.6,20.5,00.0,30.4,23.2,06.7,0000.0,0001.43,0001.02,0000.81
2023-02-18 06:15:00,,0825.2,5.00,0.00,21.5,20.3,00.0,30.5,23.2,06.6,0000.0,0001.43,0001.03,0000.82
2023-02-18 06:16:00,,0825.2,4.99,0.00,21.5,20.1,00.0,30.4,23.1,06.5,0000.0,0001.47,0001.05,0000.82
2023-02-18 06:17:00,,0825.2,4.99,0.00,21.5,19.9,00.0,30.4,23.1,06.6,0000.0,0001.43,0001.04,0000.82
2023-02-18 06:18:00,,0825.2,5.01,0.00,21.4,19.7,00.0,30.4,23.0,06.6,0000.0,0001.42,0001.04,0000.82
2023-02-18 06:19:00,,0825.2,5.01,0.00,21.4,19.6,00.0,30.4,22.9,06.6,0000.0,0001.44,0001.05,0000.82
2023-02-18 06:20:00,,0825.2,5.02,0.00,21.3,19.6,00.0,30.4,22.9,06.5,0000.0,0001.45,0001.06,0000.80
2023-02-18 06:21:00,,0825.2,4.98,0.00,21.3,19.5,00.0,30.4,22.9,06.4,0000.0,0001.45,0001.05,0000.80
2023-02-18 06:22:00,,0825.2,5.00,0.00,21.3,19.4,00.0,30.4,22.8,06.4,0000.0,0001.42,0001.03,0000.78
2023-02-18 06:23:00,,0825.2,4.99,0.00,21.2,19.6,00.0,30.3,22.8,06.6,0000.0,0001.42,0001.01,0000.77
2023-02-18 06:24:00,,0825.1,4.98,0.00,21.3,20.8,00.0,30.3,23.2,06.7,0000.0,0001.39,0000.99,0000.76
2023-02-18 06:25:00,,0825.2,4.99,0.00,21.5,22.1,00.0,30.2,23.5,06.5,0000.0,0001.39,0000.96,0000.74
2023-02-18 06:26:00,,0825.2,5.02,0.00,21.6,22.7,00.0,30.3,23.7,06.4,0000.0,0001.40,0000.95,0000.73
2023-02-18 06:27:00,,0825.2,4.99,0.00,21.7,22.0,00.0,30.4,23.6,06.8,0000.0,0001.43,0000.96,0000.72
2023-02-18 06:28:00,,0825.2,4.98,0.00,21.7,21.3,00.0,30.4,23.5,06.9,0000.0,0001.41,0000.93,0000.71
2023-02-18 06:29:00,,0825.2,5.01,0.00,21.6,20.9,00.0,30.5,23.3,07.0,0000.0,0001.40,0000.91,0000.70
2023-02-18 06:30:00,,0825.2,5.01,0.00,21.6,20.5,00.0,30.5,23.2,07.0,0000.0,0001.53,0000.93,0000.69
2023-02-18 06:31:00,,0825.1,5.00,0.00,21.6,20.3,00.0,30.5,23.2,07.1,0000.0,0001.59,0000.94,0000.68
2023-02-18 06:32:00,,0825.1,5.00,0.00,21.6,20.1,00.0,30.5,23.2,06.8,0000.0,0001.60,0000.93,0000.67
2023-02-18 06:33:00,,0825.1,4.97,0.00,21.5,20.0,00.0,30.5,23.2,06.6,0000.0,0001.62,0000.93,0000.67
2023-02-18 06:34:00,,0825.1,5.01,0.00,21.5,19.9,00.0,30.5,23.1,06.6,0000.0,0001.60,0000.92,0000.67
2023-02-18 06:35:00,,0825.1,4.99,0.00,21.5,19.8,00.0,30.5,23.0,06.5,0000.0,0001.68,0000.94,0000.67
2023-02-18 06:36:00,,0825.1,5.00,0.00,21.4,19.7,00.0,30.4,23.0,06.6,0000.0,0001.69,0000.94,0000.66
2023-02-18 06:37:00,,0825.1,5.01,0.00,21.4,19.6,00.0,30.4,22.9,06.6,0000.0,0001.73,0000.93,0000.65
2023-02-18 06:38:00,,0825.1,5.01,0.00,21.3,19.5,00.0,30.4,22.9,06.7,0000.0,0001.69,0000.91,0000.64
2023-02-18 06:39:00,,0825.0,4.99,0.00,21.3,19.4,00.0,30.4,22.8,06.6,0000.0,0001.68,0000.90,0000.63
2023-02-18 06:40:00,,0825.1,4.99,0.00,21.3,19.5,00.0,30.3,22.8,06.6,0000.0,0001.65,0000.91,0000.63
2023-02-18 06:41:00,,0825.1,4.97,0.00,21.3,20.7,00.0,30.3,23.1,06.7,0000.0,0001.52,0000.88,0000.64
2023-02-18 06:42:00,,0825.1,5.01,0.00,21.5,22.0,00.0,30.3,23.5,06.7,0000.0,0001.43,0000.84,0000.64
2023-02-18 06:43:00,,0825.0,5.01,0.00,21.6,22.5,00.0,30.3,23.6,06.6,0000.0,0001.41,0000.84,0000.65
2023-02-18 06:44:00,,0825.0,5.01,0.00,21.6,21.9,00.0,30.4,23.5,06.5,0000.0,0001.47,0000.88,0000.65
2023-02-18 06:45:00,,0825.0,5.01,0.00,21.6,21.3,00.0,30.4,23.4,06.4,0000.0,0001.47,0000.88,0000.65
2023-02-18 06:46:00,,0824.9,5.00,0.00,21.6,20.8,00.0,30.4,23.3,06.3,0000.0,0001.45,0000.89,0000.65
2023-02-18 06:47:00,,0825.0,4.99,0.00,21.6,20.4,00.0,30.5,23.2,06.2,0000.0,0001.37,0000.88,0000.64
2023-02-18 06:48:00,,0824.9,5.00,0.00,21.5,20.2,00.0,30.5,23.2,06.1,0000.0,0001.28,0000.86,0000.65
2023-02-18 06:49:00,,0824.9,4.98,0.00,21.5,20.0,00.0,30.5,23.1,06.2,0000.0,0001.33,0000.90,0000.66
2023-02-18 06:50:00,,0824.9,4.99,0.00,21.5,19.9,00.0,30.5,23.1,06.3,0000.0,0001.34,0000.91,0000.66
2023-02-18 06:51:00,,0824.9,5.01,0.00,21.4,19.8,00.0,30.4,23.0,06.3,0000.0,0001.31,0000.89,0000.66
2023-02-18 06:52:00,,0824.9,4.98,0.00,21.4,19.7,00.0,30.4,23.0,06.8,0000.0,0001.26,0000.88,0000.65
2023-02-18 06:53:00,,0824.9,5.04,0.00,21.4,19.6,00.0,30.4,22.9,07.1,0000.0,0001.25,0000.87,0000.65
2023-02-18 06:54:00,,0824.9,5.02,0.00,21.3,19.5,00.0,30.4,22.9,06.8,0000.0,0001.22,0000.85,0000.64
2023-02-18 06:55:00,,0824.8,4.95,0.00,21.3,19.4,00.0,30.4,22.8,06.5,0000.0,0001.20,0000.83,0000.63
2023-02-18 06:56:00,,0824.9,5.01,0.00,21.3,19.4,00.0,30.4,22.8,06.8,0000.0,0001.27,0000.86,0000.64
2023-02-18 06:57:00,,0824.9,5.01,0.00,21.3,19.3,00.0,30.3,22.8,06.7,0000.0,0001.19,0000.84,0000.64
2023-02-18 06:58:00,,0824.9,5.01,0.00,21.2,19.3,00.0,30.3,22.8,06.4,0000.0,0001.17,0000.83,0000.64
2023-02-18 06:59:00,,0824.9,5.00,0.00,21.3,20.4,00.0,30.2,23.1,05.7,0000.0,0001.13,0000.81,0000.63
